Year,Month,Day,Hour,Minute,Value (Times are PST for temperature in C)
2019,06,30,00,00,14.60
2019,06,30,00,01,14.60
2019,06,30,00,02,14.60
2019,06,30,00,03,14.60
2019,06,30,00,04,14.50
2019,06,30,00,05,14.50
2019,06,30,00,06,14.50
2019,06,30,00,07,14.40
2019,06,30,00,08,14.40
2019,06,30,00,09,14.40
2019,06,30,00,10,14.40
2019,06,30,00,11,14.40
2019,06,30,00,12,14.30
2019,06,30,00,13,14.30
2019,06,30,00,14,14.30
2019,06,30,00,15,14.30
2019,06,30,00,16,14.40
2019,06,30,00,17,14.40
2019,06,30,00,18,14.40
2019,06,30,00,19,14.40
2019,06,30,00,20,14.40
2019,06,30,00,21,14.40
2019,06,30,00,22,14.40
2019,06,30,00,23,14.50
2019,06,30,00,24,14.50
2019,06,30,00,25,14.50
2019,06,30,00,26,14.50
2019,06,30,00,27,14.50
2019,06,30,00,28,14.50
2019,06,30,00,29,14.60
2019,06,30,00,30,14.50
2019,06,30,00,31,14.50
2019,06,30,00,32,14.50
2019,06,30,00,33,14.40
2019,06,30,00,34,14.40
2019,06,30,00,35,14.40
2019,06,30,00,36,14.40
2019,06,30,00,37,14.40
2019,06,30,00,38,14.40
2019,06,30,00,39,14.40
2019,06,30,00,40,14.40
2019,06,30,00,41,14.40
2019,06,30,00,42,14.30
2019,06,30,00,43,14.30
2019,06,30,00,44,14.30
2019,06,30,00,45,14.30
2019,06,30,00,46,14.30
2019,06,30,00,47,14.30
2019,06,30,00,48,14.30
2019,06,30,00,49,14.30
2019,06,30,00,50,14.30
2019,06,30,00,51,14.40
2019,06,30,00,52,14.40
2019,06,30,00,53,14.40
2019,06,30,00,54,14.40
2019,06,30,00,55,14.40
2019,06,30,00,56,14.40
2019,06,30,00,57,14.40
2019,06,30,00,58,14.40
2019,06,30,00,59,14.40
2019,06,30,01,00,14.40
2019,06,30,01,01,14.40
2019,06,30,01,02,14.40
2019,06,30,01,03,14.40
2019,06,30,01,04,14.40
2019,06,30,01,05,14.40
2019,06,30,01,06,14.40
2019,06,30,01,07,14.40
2019,06,30,01,08,14.40
2019,06,30,01,09,14.40
2019,06,30,01,10,14.40
2019,06,30,01,11,14.40
2019,06,30,01,12,14.40
2019,06,30,01,13,14.40
2019,06,30,01,14,14.50
2019,06,30,01,15,14.50
2019,06,30,01,16,14.40
2019,06,30,01,17,14.40
2019,06,30,01,18,14.40
2019,06,30,01,19,14.40
2019,06,30,01,20,14.50
2019,06,30,01,21,14.50
2019,06,30,01,22,14.50
2019,06,30,01,23,14.50
2019,06,30,01,24,14.50
2019,06,30,01,25,14.50
2019,06,30,01,26,14.50
2019,06,30,01,27,14.50
2019,06,30,01,28,14.50
2019,06,30,01,29,14.50
2019,06,30,01,30,14.50
2019,06,30,01,31,14.50
2019,06,30,01,32,14.50
2019,06,30,01,33,14.50
2019,06,30,01,34,14.50
2019,06,30,01,35,14.50
2019,06,30,01,36,14.50
2019,06,30,01,37,14.50
2019,06,30,01,38,14.50
2019,06,30,01,39,14.50
2019,06,30,01,40,14.50
2019,06,30,01,41,14.50
2019,06,30,01,42,14.40
2019,06,30,01,43,14.40
2019,06,30,01,44,14.40
2019,06,30,01,45,14.40
2019,06,30,01,46,14.40
2019,06,30,01,47,14.40
2019,06,30,01,48,14.30
2019,06,30,01,49,14.30
2019,06,30,01,50,14.30
2019,06,30,01,51,14.30
2019,06,30,01,52,14.30
2019,06,30,01,53,14.30
2019,06,30,01,54,14.30
2019,06,30,01,55,14.30
2019,06,30,01,56,14.30
2019,06,30,01,57,14.30
2019,06,30,01,58,14.30
2019,06,30,01,59,14.30
2019,06,30,02,00,14.30
2019,06,30,02,01,14.20
2019,06,30,02,02,14.20
2019,06,30,02,03,14.20
2019,06,30,02,04,14.20
2019,06,30,02,05,14.20
2019,06,30,02,06,14.20
2019,06,30,02,07,14.20
2019,06,30,02,08,14.20
2019,06,30,02,09,14.20
2019,06,30,02,10,14.20
2019,06,30,02,11,14.20
2019,06,30,02,12,14.20
2019,06,30,02,13,14.30
2019,06,30,02,14,14.20
2019,06,30,02,15,14.20
2019,06,30,02,16,14.20
2019,06,30,02,17,14.20
2019,06,30,02,18,14.20
2019,06,30,02,19,14.20
2019,06,30,02,20,14.20
2019,06,30,02,21,14.20
2019,06,30,02,22,14.30
2019,06,30,02,23,14.30
2019,06,30,02,24,14.30
2019,06,30,02,25,14.30
2019,06,30,02,26,14.30
2019,06,30,02,27,14.30
2019,06,30,02,28,14.30
2019,06,30,02,29,14.30
2019,06,30,02,30,14.30
2019,06,30,02,31,14.30
2019,06,30,02,32,14.30
2019,06,30,02,33,14.30
2019,06,30,02,34,14.30
2019,06,30,02,35,14.30
2019,06,30,02,36,14.30
2019,06,30,02,37,14.30
2019,06,30,02,38,14.20
2019,06,30,02,39,14.20
2019,06,30,02,40,14.20
2019,06,30,02,41,14.20
2019,06,30,02,42,14.20
2019,06,30,02,43,14.20
2019,06,30,02,44,14.30
2019,06,30,02,45,14.20
2019,06,30,02,46,14.20
2019,06,30,02,47,14.20
2019,06,30,02,48,14.20
2019,06,30,02,49,14.20
2019,06,30,02,50,14.20
2019,06,30,02,51,14.20
2019,06,30,02,52,14.20
2019,06,30,02,53,14.20
2019,06,30,02,54,14.20
2019,06,30,02,55,14.20
2019,06,30,02,56,14.20
2019,06,30,02,57,14.20
2019,06,30,02,58,14.20
2019,06,30,02,59,14.20
2019,06,30,03,00,14.20
2019,06,30,03,01,14.20
2019,06,30,03,02,14.20
2019,06,30,03,03,14.20
2019,06,30,03,04,14.20
2019,06,30,03,05,14.20
2019,06,30,03,06,14.20
2019,06,30,03,07,14.20
2019,06,30,03,08,14.20
2019,06,30,03,09,14.20
2019,06,30,03,10,14.20
2019,06,30,03,11,14.20
2019,06,30,03,12,14.20
2019,06,30,03,13,14.20
2019,06,30,03,14,14.20
2019,06,30,03,15,14.20
2019,06,30,03,16,14.20
2019,06,30,03,17,14.20
2019,06,30,03,18,14.20
2019,06,30,03,19,14.20
2019,06,30,03,20,14.20
2019,06,30,03,21,14.20
2019,06,30,03,22,14.20
2019,06,30,03,23,14.20
2019,06,30,03,24,14.30
2019,06,30,03,25,14.20
2019,06,30,03,26,14.30
2019,06,30,03,27,14.30
2019,06,30,03,28,14.30
2019,06,30,03,29,14.20
2019,06,30,03,30,14.20
2019,06,30,03,31,14.20
2019,06,30,03,32,14.20
2019,06,30,03,33,14.30
2019,06,30,03,34,14.30
2019,06,30,03,35,14.30
2019,06,30,03,36,14.30
2019,06,30,03,37,14.30
2019,06,30,03,38,14.30
2019,06,30,03,39,14.30
2019,06,30,03,40,14.20
2019,06,30,03,41,14.20
2019,06,30,03,42,14.20
2019,06,30,03,43,14.20
2019,06,30,03,44,14.20
2019,06,30,03,45,14.20
2019,06,30,03,46,14.20
2019,06,30,03,47,14.10
2019,06,30,03,48,14.10
2019,06,30,03,49,14.10
2019,06,30,03,50,14.10
2019,06,30,03,51,14.00
2019,06,30,03,52,14.00
2019,06,30,03,53,14.00
2019,06,30,03,54,14.00
2019,06,30,03,55,14.00
2019,06,30,03,56,14.00
2019,06,30,03,57,14.00
2019,06,30,03,58,14.00
2019,06,30,03,59,14.00
2019,06,30,04,00,14.00
2019,06,30,04,01,14.00
2019,06,30,04,02,14.00
2019,06,30,04,03,14.00
2019,06,30,04,04,14.00
2019,06,30,04,05,14.00
2019,06,30,04,06,14.00
2019,06,30,04,07,14.00
2019,06,30,04,08,14.00
2019,06,30,04,09,14.00
2019,06,30,04,10,14.00
2019,06,30,04,11,13.90
2019,06,30,04,12,13.90
2019,06,30,04,13,13.90
2019,06,30,04,14,13.90
2019,06,30,04,15,13.90
2019,06,30,04,16,13.90
2019,06,30,04,17,13.90
2019,06,30,04,18,13.90
2019,06,30,04,19,13.90
2019,06,30,04,20,13.90
2019,06,30,04,21,13.90
2019,06,30,04,22,13.90
2019,06,30,04,23,13.90
2019,06,30,04,24,13.90
2019,06,30,04,25,13.80
2019,06,30,04,26,13.80
2019,06,30,04,27,13.80
2019,06,30,04,28,13.80
2019,06,30,04,29,13.80
2019,06,30,04,30,13.80
2019,06,30,04,31,13.80
2019,06,30,04,32,13.80
2019,06,30,04,33,13.80
2019,06,30,04,34,13.80
2019,06,30,04,35,13.80
2019,06,30,04,36,13.80
2019,06,30,04,37,13.80
2019,06,30,04,38,13.80
2019,06,30,04,39,13.80
2019,06,30,04,40,13.80
2019,06,30,04,41,13.80
2019,06,30,04,42,13.80
2019,06,30,04,43,13.80
2019,06,30,04,44,13.70
2019,06,30,04,45,13.70
2019,06,30,04,46,13.70
2019,06,30,04,47,13.70
2019,06,30,04,48,13.70
2019,06,30,04,49,13.70
2019,06,30,04,50,13.70
2019,06,30,04,51,13.70
2019,06,30,04,52,13.70
2019,06,30,04,53,13.70
2019,06,30,04,54,13.70
2019,06,30,04,55,13.70
2019,06,30,04,56,13.60
2019,06,30,04,57,13.60
2019,06,30,04,58,13.60
2019,06,30,04,59,13.60
2019,06,30,05,00,13.60
2019,06,30,05,01,13.60
2019,06,30,05,02,13.60
2019,06,30,05,03,13.60
2019,06,30,05,04,13.60
2019,06,30,05,05,13.60
2019,06,30,05,06,13.60
2019,06,30,05,07,13.60
2019,06,30,05,08,13.60
2019,06,30,05,09,13.60
2019,06,30,05,10,13.60
2019,06,30,05,11,13.60
2019,06,30,05,12,13.60
2019,06,30,05,13,13.60
2019,06,30,05,14,13.60
2019,06,30,05,15,13.60
2019,06,30,05,16,13.60
2019,06,30,05,17,13.60
2019,06,30,05,18,13.60
2019,06,30,05,19,13.60
2019,06,30,05,20,13.60
2019,06,30,05,21,13.60
2019,06,30,05,22,13.60
2019,06,30,05,23,13.60
2019,06,30,05,24,13.60
2019,06,30,05,25,13.50
2019,06,30,05,26,13.50
2019,06,30,05,27,13.50
2019,06,30,05,28,13.50
2019,06,30,05,29,13.50
2019,06,30,05,30,13.50
2019,06,30,05,31,13.50
2019,06,30,05,32,13.50
2019,06,30,05,33,13.50
2019,06,30,05,34,13.50
2019,06,30,05,35,13.50
2019,06,30,05,36,13.50
2019,06,30,05,37,13.50
2019,06,30,05,38,13.50
2019,06,30,05,39,13.50
2019,06,30,05,40,13.50
2019,06,30,05,41,13.40
2019,06,30,05,42,13.40
2019,06,30,05,43,13.40
2019,06,30,05,44,13.40
2019,06,30,05,45,13.40
2019,06,30,05,46,13.40
2019,06,30,05,47,13.40
2019,06,30,05,48,13.40
2019,06,30,05,49,13.40
2019,06,30,05,50,13.40
2019,06,30,05,51,13.40
2019,06,30,05,52,13.40
2019,06,30,05,53,13.40
2019,06,30,05,54,13.40
2019,06,30,05,55,13.30
2019,06,30,05,56,13.40
2019,06,30,05,57,13.30
2019,06,30,05,58,13.30
2019,06,30,05,59,13.30
2019,06,30,06,00,13.40
2019,06,30,06,01,13.40
2019,06,30,06,02,13.40
2019,06,30,06,03,13.40
2019,06,30,06,04,13.40
2019,06,30,06,05,13.40
2019,06,30,06,06,13.40
2019,06,30,06,07,13.40
2019,06,30,06,08,13.40
2019,06,30,06,09,13.40
2019,06,30,06,10,13.40
2019,06,30,06,11,13.40
2019,06,30,06,12,13.40
2019,06,30,06,13,13.40
2019,06,30,06,14,13.40
2019,06,30,06,15,13.40
2019,06,30,06,16,13.40
2019,06,30,06,17,13.40
2019,06,30,06,18,13.40
2019,06,30,06,19,13.40
2019,06,30,06,20,13.40
2019,06,30,06,21,13.40
2019,06,30,06,22,13.40
2019,06,30,06,23,13.40
2019,06,30,06,24,13.40
2019,06,30,06,25,13.40
2019,06,30,06,26,13.50
2019,06,30,06,27,13.50
2019,06,30,06,28,13.50
2019,06,30,06,29,13.50
2019,06,30,06,30,13.60
2019,06,30,06,31,13.60
2019,06,30,06,32,13.60
2019,06,30,06,33,13.60
2019,06,30,06,34,13.60
2019,06,30,06,35,13.60
2019,06,30,06,36,13.60
2019,06,30,06,37,13.60
2019,06,30,06,38,13.70
2019,06,30,06,39,13.70
2019,06,30,06,40,13.70
2019,06,30,06,41,13.70
2019,06,30,06,42,13.70
2019,06,30,06,43,13.70
2019,06,30,06,44,13.70
2019,06,30,06,45,13.80
2019,06,30,06,46,13.80
2019,06,30,06,47,13.80
2019,06,30,06,48,13.80
2019,06,30,06,49,13.80
2019,06,30,06,50,13.80
2019,06,30,06,51,13.90
2019,06,30,06,52,13.90
2019,06,30,06,53,14.00
2019,06,30,06,54,14.00
2019,06,30,06,55,14.10
2019,06,30,06,56,14.20
2019,06,30,06,57,14.20
2019,06,30,06,58,14.30
2019,06,30,06,59,14.30
2019,06,30,07,00,14.40
2019,06,30,07,01,14.40
2019,06,30,07,02,14.40
2019,06,30,07,03,14.40
2019,06,30,07,04,14.50
2019,06,30,07,05,14.50
2019,06,30,07,06,14.60
2019,06,30,07,07,14.60
2019,06,30,07,08,14.60
2019,06,30,07,09,14.70
2019,06,30,07,10,14.70
2019,06,30,07,11,14.70
2019,06,30,07,12,14.70
2019,06,30,07,13,14.70
2019,06,30,07,14,14.70
2019,06,30,07,15,14.60
2019,06,30,07,16,14.70
2019,06,30,07,17,14.70
2019,06,30,07,18,14.70
2019,06,30,07,19,14.70
2019,06,30,07,20,14.70
2019,06,30,07,21,14.70
2019,06,30,07,22,14.70
2019,06,30,07,23,14.70
2019,06,30,07,24,14.70
2019,06,30,07,25,14.70
2019,06,30,07,26,14.70
2019,06,30,07,27,14.70
2019,06,30,07,28,14.70
2019,06,30,07,29,14.70
2019,06,30,07,30,14.60
2019,06,30,07,31,14.60
2019,06,30,07,32,14.60
2019,06,30,07,33,14.60
2019,06,30,07,34,14.60
2019,06,30,07,35,14.60
2019,06,30,07,36,14.60
2019,06,30,07,37,14.60
2019,06,30,07,38,14.70
2019,06,30,07,39,14.70
2019,06,30,07,40,14.70
2019,06,30,07,41,14.70
2019,06,30,07,42,14.70
2019,06,30,07,43,14.70
2019,06,30,07,44,14.70
2019,06,30,07,45,14.80
2019,06,30,07,46,14.80
2019,06,30,07,47,14.80
2019,06,30,07,48,14.80
2019,06,30,07,49,14.80
2019,06,30,07,50,14.90
2019,06,30,07,51,15.00
2019,06,30,07,52,15.00
2019,06,30,07,53,15.10
2019,06,30,07,54,15.10
2019,06,30,07,55,15.20
2019,06,30,07,56,15.20
2019,06,30,07,57,15.30
2019,06,30,07,58,15.30
2019,06,30,07,59,15.40
2019,06,30,08,00,15.50
2019,06,30,08,01,15.60
2019,06,30,08,02,15.60
2019,06,30,08,03,15.60
2019,06,30,08,04,15.70
2019,06,30,08,05,15.70
2019,06,30,08,06,15.70
2019,06,30,08,07,15.80
2019,06,30,08,08,15.80
2019,06,30,08,09,15.80
2019,06,30,08,10,15.90
2019,06,30,08,11,15.90
2019,06,30,08,12,16.00
2019,06,30,08,13,16.00
2019,06,30,08,14,16.10
2019,06,30,08,15,16.10
2019,06,30,08,16,16.10
2019,06,30,08,17,16.20
2019,06,30,08,18,16.20
2019,06,30,08,19,16.20
2019,06,30,08,20,16.30
2019,06,30,08,21,16.30
2019,06,30,08,22,16.30
2019,06,30,08,23,16.40
2019,06,30,08,24,16.40
2019,06,30,08,25,16.40
2019,06,30,08,26,16.40
2019,06,30,08,27,16.40
2019,06,30,08,28,16.40
2019,06,30,08,29,16.40
2019,06,30,08,30,16.30
2019,06,30,08,31,16.30
2019,06,30,08,32,16.30
2019,06,30,08,33,16.30
2019,06,30,08,34,16.30
2019,06,30,08,35,16.30
2019,06,30,08,36,16.30
2019,06,30,08,37,16.30
2019,06,30,08,38,16.30
2019,06,30,08,39,16.30
2019,06,30,08,40,16.30
2019,06,30,08,41,16.40
2019,06,30,08,42,16.40
2019,06,30,08,43,16.50
2019,06,30,08,44,16.50
2019,06,30,08,45,16.60
2019,06,30,08,46,16.60
2019,06,30,08,47,16.60
2019,06,30,08,48,16.70
2019,06,30,08,49,16.70
2019,06,30,08,50,16.80
2019,06,30,08,51,16.80
2019,06,30,08,52,16.80
2019,06,30,08,53,16.80
2019,06,30,08,54,16.80
2019,06,30,08,55,16.90
2019,06,30,08,56,16.90
2019,06,30,08,57,16.90
2019,06,30,08,58,16.90
2019,06,30,08,59,16.80
2019,06,30,09,00,16.80
2019,06,30,09,01,16.80
2019,06,30,09,02,16.80
2019,06,30,09,03,16.80
2019,06,30,09,04,16.80
2019,06,30,09,05,16.90
2019,06,30,09,06,16.90
2019,06,30,09,07,17.00
2019,06,30,09,08,17.10
2019,06,30,09,09,17.20
2019,06,30,09,10,17.20
2019,06,30,09,11,17.30
2019,06,30,09,12,17.30
2019,06,30,09,13,17.30
2019,06,30,09,14,17.40
2019,06,30,09,15,17.50
2019,06,30,09,16,17.50
2019,06,30,09,17,17.60
2019,06,30,09,18,17.60
2019,06,30,09,19,17.60
2019,06,30,09,20,17.50
2019,06,30,09,21,17.50
2019,06,30,09,22,17.50
2019,06,30,09,23,17.50
2019,06,30,09,24,17.40
2019,06,30,09,25,17.40
2019,06,30,09,26,17.40
2019,06,30,09,27,17.40
2019,06,30,09,28,17.40
2019,06,30,09,29,17.40
2019,06,30,09,30,17.40
2019,06,30,09,31,17.40
2019,06,30,09,32,17.50
2019,06,30,09,33,17.50
2019,06,30,09,34,17.60
2019,06,30,09,35,17.60
2019,06,30,09,36,17.70
2019,06,30,09,37,17.70
2019,06,30,09,38,17.90
2019,06,30,09,39,18.00
2019,06,30,09,40,18.10
2019,06,30,09,41,18.10
2019,06,30,09,42,18.20
2019,06,30,09,43,18.20
2019,06,30,09,44,18.20
2019,06,30,09,45,18.20
2019,06,30,09,46,18.20
2019,06,30,09,47,18.10
2019,06,30,09,48,18.10
2019,06,30,09,49,18.10
2019,06,30,09,50,18.10
2019,06,30,09,51,18.10
2019,06,30,09,52,18.10
2019,06,30,09,53,18.10
2019,06,30,09,54,18.20
2019,06,30,09,55,18.20
2019,06,30,09,56,18.20
2019,06,30,09,57,18.20
2019,06,30,09,58,18.20
2019,06,30,09,59,18.30
2019,06,30,10,00,18.30
2019,06,30,10,01,18.30
2019,06,30,10,02,18.30
2019,06,30,10,03,18.40
2019,06,30,10,04,18.40
2019,06,30,10,05,18.40
2019,06,30,10,06,18.50
2019,06,30,10,07,18.60
2019,06,30,10,08,18.60
2019,06,30,10,09,18.70
2019,06,30,10,10,18.70
2019,06,30,10,11,18.70
2019,06,30,10,12,18.80
2019,06,30,10,13,18.80
2019,06,30,10,14,18.80
2019,06,30,10,15,18.90
2019,06,30,10,16,19.00
2019,06,30,10,17,19.10
2019,06,30,10,18,19.20
2019,06,30,10,19,19.30
2019,06,30,10,20,19.30
2019,06,30,10,21,19.40
2019,06,30,10,22,19.50
2019,06,30,10,23,19.50
2019,06,30,10,24,19.50
2019,06,30,10,25,19.50
2019,06,30,10,26,19.50
2019,06,30,10,27,19.50
2019,06,30,10,28,19.50
2019,06,30,10,29,19.50
2019,06,30,10,30,19.50
2019,06,30,10,31,19.50
2019,06,30,10,32,19.60
2019,06,30,10,33,19.60
2019,06,30,10,34,19.60
2019,06,30,10,35,19.60
2019,06,30,10,36,19.70
2019,06,30,10,37,19.80
2019,06,30,10,38,20.00
2019,06,30,10,39,20.10
2019,06,30,10,40,20.10
2019,06,30,10,41,20.20
2019,06,30,10,42,20.10
2019,06,30,10,43,20.10
2019,06,30,10,44,20.10
2019,06,30,10,45,20.00
2019,06,30,10,46,20.00
2019,06,30,10,47,19.90
2019,06,30,10,48,19.90
2019,06,30,10,49,19.90
2019,06,30,10,50,20.00
2019,06,30,10,51,20.10
2019,06,30,10,52,20.10
2019,06,30,10,53,20.20
2019,06,30,10,54,20.20
2019,06,30,10,55,20.30
2019,06,30,10,56,20.30
2019,06,30,10,57,20.30
2019,06,30,10,58,20.40
2019,06,30,10,59,20.40
2019,06,30,11,00,20.40
2019,06,30,11,01,20.50
2019,06,30,11,02,20.60
2019,06,30,11,03,20.60
2019,06,30,11,04,20.80
2019,06,30,11,05,20.90
2019,06,30,11,06,21.00
2019,06,30,11,07,21.10
2019,06,30,11,08,21.20
2019,06,30,11,09,21.30
2019,06,30,11,10,21.40
2019,06,30,11,11,21.40
2019,06,30,11,12,21.50
2019,06,30,11,13,21.50
2019,06,30,11,14,21.60
2019,06,30,11,15,21.70
2019,06,30,11,16,21.70
2019,06,30,11,17,21.70
2019,06,30,11,18,21.70
2019,06,30,11,19,21.80
2019,06,30,11,20,21.80
2019,06,30,11,21,21.80
2019,06,30,11,22,21.80
2019,06,30,11,23,21.80
2019,06,30,11,24,21.80
2019,06,30,11,25,21.70
2019,06,30,11,26,21.70
2019,06,30,11,27,21.70
2019,06,30,11,28,21.60
2019,06,30,11,29,21.60
2019,06,30,11,30,21.50
2019,06,30,11,31,21.40
2019,06,30,11,32,21.40
2019,06,30,11,33,21.40
2019,06,30,11,34,21.40
2019,06,30,11,35,21.40
2019,06,30,11,36,21.40
2019,06,30,11,37,21.40
2019,06,30,11,38,21.40
2019,06,30,11,39,21.50
2019,06,30,11,40,21.50
2019,06,30,11,41,21.50
2019,06,30,11,42,21.50
2019,06,30,11,43,21.50
2019,06,30,11,44,21.50
2019,06,30,11,45,21.50
2019,06,30,11,46,21.50
2019,06,30,11,47,21.60
2019,06,30,11,48,21.50
2019,06,30,11,49,21.50
2019,06,30,11,50,21.60
2019,06,30,11,51,21.60
2019,06,30,11,52,21.70
2019,06,30,11,53,21.70
2019,06,30,11,54,21.70
2019,06,30,11,55,21.80
2019,06,30,11,56,21.80
2019,06,30,11,57,21.90
2019,06,30,11,58,22.00
2019,06,30,11,59,22.20
2019,06,30,12,00,22.30
2019,06,30,12,01,22.40
2019,06,30,12,02,22.50
2019,06,30,12,03,22.60
2019,06,30,12,04,22.60
2019,06,30,12,05,22.60
2019,06,30,12,06,22.70
2019,06,30,12,07,22.70
2019,06,30,12,08,22.70
2019,06,30,12,09,22.70
2019,06,30,12,10,22.60
2019,06,30,12,11,22.60
2019,06,30,12,12,22.60
2019,06,30,12,13,22.60
2019,06,30,12,14,22.60
2019,06,30,12,15,22.70
2019,06,30,12,16,22.80
2019,06,30,12,17,22.90
2019,06,30,12,18,23.20
2019,06,30,12,19,23.40
2019,06,30,12,20,23.60
2019,06,30,12,21,23.80
2019,06,30,12,22,23.90
2019,06,30,12,23,24.00
2019,06,30,12,24,24.10
2019,06,30,12,25,24.20
2019,06,30,12,26,24.30
2019,06,30,12,27,24.30
2019,06,30,12,28,24.20
2019,06,30,12,29,24.20
2019,06,30,12,30,24.10
2019,06,30,12,31,24.10
2019,06,30,12,32,24.10
2019,06,30,12,33,24.10
2019,06,30,12,34,24.10
2019,06,30,12,35,24.20
2019,06,30,12,36,24.20
2019,06,30,12,37,24.20
2019,06,30,12,38,24.10
2019,06,30,12,39,24.10
2019,06,30,12,40,24.10
2019,06,30,12,41,24.10
2019,06,30,12,42,24.20
2019,06,30,12,43,24.20
2019,06,30,12,44,24.20
2019,06,30,12,45,24.10
2019,06,30,12,46,24.00
2019,06,30,12,47,23.90
2019,06,30,12,48,23.90
2019,06,30,12,49,24.00
2019,06,30,12,50,24.10
2019,06,30,12,51,24.10
2019,06,30,12,52,24.10
2019,06,30,12,53,24.10
2019,06,30,12,54,24.00
2019,06,30,12,55,24.00
2019,06,30,12,56,23.90
2019,06,30,12,57,23.90
2019,06,30,12,58,23.80
2019,06,30,12,59,23.90
2019,06,30,13,00,23.90
2019,06,30,13,01,24.00
2019,06,30,13,02,24.00
2019,06,30,13,03,24.10
2019,06,30,13,04,24.10
2019,06,30,13,05,24.00
2019,06,30,13,06,24.00
2019,06,30,13,07,24.00
2019,06,30,13,08,24.00
2019,06,30,13,09,24.00
2019,06,30,13,10,24.00
2019,06,30,13,11,24.00
2019,06,30,13,12,24.10
2019,06,30,13,13,24.20
2019,06,30,13,14,24.30
2019,06,30,13,15,24.30
2019,06,30,13,16,24.40
2019,06,30,13,17,24.50
2019,06,30,13,18,24.50
2019,06,30,13,19,24.40
2019,06,30,13,20,24.40
2019,06,30,13,21,24.50
2019,06,30,13,22,24.50
2019,06,30,13,23,24.60
2019,06,30,13,24,24.60
2019,06,30,13,25,24.70
2019,06,30,13,26,24.60
2019,06,30,13,27,24.60
2019,06,30,13,28,24.60
2019,06,30,13,29,24.70
2019,06,30,13,30,24.80
2019,06,30,13,31,24.80
2019,06,30,13,32,24.70
2019,06,30,13,33,24.60
2019,06,30,13,34,24.60
2019,06,30,13,35,24.60
2019,06,30,13,36,24.70
2019,06,30,13,37,24.80
2019,06,30,13,38,24.70
2019,06,30,13,39,24.70
2019,06,30,13,40,24.70
2019,06,30,13,41,24.70
2019,06,30,13,42,24.70
2019,06,30,13,43,24.70
2019,06,30,13,44,24.80
2019,06,30,13,45,24.80
2019,06,30,13,46,24.90
2019,06,30,13,47,24.90
2019,06,30,13,48,25.00
2019,06,30,13,49,25.10
2019,06,30,13,50,25.10
2019,06,30,13,51,25.00
2019,06,30,13,52,25.00
2019,06,30,13,53,24.90
2019,06,30,13,54,25.00
2019,06,30,13,55,25.00
2019,06,30,13,56,24.90
2019,06,30,13,57,24.90
2019,06,30,13,58,24.90
2019,06,30,13,59,24.90
2019,06,30,14,00,24.90
2019,06,30,14,01,24.80
2019,06,30,14,02,24.80
2019,06,30,14,03,24.70
2019,06,30,14,04,24.70
2019,06,30,14,05,24.60
2019,06,30,14,06,24.50
2019,06,30,14,07,24.40
2019,06,30,14,08,24.40
2019,06,30,14,09,24.30
2019,06,30,14,10,24.30
2019,06,30,14,11,24.20
2019,06,30,14,12,24.10
2019,06,30,14,13,24.00
2019,06,30,14,14,23.90
2019,06,30,14,15,23.90
2019,06,30,14,16,23.90
2019,06,30,14,17,24.00
2019,06,30,14,18,24.10
2019,06,30,14,19,24.30
2019,06,30,14,20,24.40
2019,06,30,14,21,24.40
2019,06,30,14,22,24.50
2019,06,30,14,23,24.50
2019,06,30,14,24,24.40
2019,06,30,14,25,24.40
2019,06,30,14,26,24.40
2019,06,30,14,27,24.40
2019,06,30,14,28,24.40
2019,06,30,14,29,24.30
2019,06,30,14,30,24.30
2019,06,30,14,31,24.30
2019,06,30,14,32,24.40
2019,06,30,14,33,24.40
2019,06,30,14,34,24.40
2019,06,30,14,35,24.40
2019,06,30,14,36,24.30
2019,06,30,14,37,24.20
2019,06,30,14,38,24.10
2019,06,30,14,39,24.10
2019,06,30,14,40,24.00
2019,06,30,14,41,24.00
2019,06,30,14,42,23.90
2019,06,30,14,43,23.80
2019,06,30,14,44,23.80
2019,06,30,14,45,23.80
2019,06,30,14,46,23.90
2019,06,30,14,47,24.00
2019,06,30,14,48,24.10
2019,06,30,14,49,24.20
2019,06,30,14,50,24.30
2019,06,30,14,51,24.20
2019,06,30,14,52,24.20
2019,06,30,14,53,24.20
2019,06,30,14,54,24.20
2019,06,30,14,55,24.20
2019,06,30,14,56,24.20
2019,06,30,14,57,24.20
2019,06,30,14,58,24.20
2019,06,30,14,59,24.30
2019,06,30,15,00,24.40
2019,06,30,15,01,24.40
2019,06,30,15,02,24.40
2019,06,30,15,03,24.30
2019,06,30,15,04,24.30
2019,06,30,15,05,24.20
2019,06,30,15,06,24.30
2019,06,30,15,07,24.30
2019,06,30,15,08,24.30
2019,06,30,15,09,24.20
2019,06,30,15,10,24.10
2019,06,30,15,11,24.10
2019,06,30,15,12,24.10
2019,06,30,15,13,24.00
2019,06,30,15,14,23.90
2019,06,30,15,15,23.90
2019,06,30,15,16,23.90
2019,06,30,15,17,23.90
2019,06,30,15,18,23.80
2019,06,30,15,19,23.80
2019,06,30,15,20,23.90
2019,06,30,15,21,23.90
2019,06,30,15,22,23.90
2019,06,30,15,23,23.90
2019,06,30,15,24,23.90
2019,06,30,15,25,23.80
2019,06,30,15,26,23.80
2019,06,30,15,27,23.70
2019,06,30,15,28,23.70
2019,06,30,15,29,23.70
2019,06,30,15,30,23.60
2019,06,30,15,31,23.60
2019,06,30,15,32,23.60
2019,06,30,15,33,23.70
2019,06,30,15,34,23.70
2019,06,30,15,35,23.70
2019,06,30,15,36,23.70
2019,06,30,15,37,23.80
2019,06,30,15,38,23.80
2019,06,30,15,39,23.80
2019,06,30,15,40,23.90
2019,06,30,15,41,23.90
2019,06,30,15,42,23.90
2019,06,30,15,43,23.90
2019,06,30,15,44,23.80
2019,06,30,15,45,23.90
2019,06,30,15,46,23.90
2019,06,30,15,47,23.90
2019,06,30,15,48,24.00
2019,06,30,15,49,24.10
2019,06,30,15,50,24.20
2019,06,30,15,51,24.30
2019,06,30,15,52,24.30
2019,06,30,15,53,24.40
2019,06,30,15,54,24.50
2019,06,30,15,55,24.40
2019,06,30,15,56,24.40
2019,06,30,15,57,24.40
2019,06,30,15,58,24.50
2019,06,30,15,59,24.50
2019,06,30,16,00,24.50
2019,06,30,16,01,24.50
2019,06,30,16,02,24.60
2019,06,30,16,03,24.60
2019,06,30,16,04,24.70
2019,06,30,16,05,24.70
2019,06,30,16,06,24.70
2019,06,30,16,07,24.70
2019,06,30,16,08,24.70
2019,06,30,16,09,24.80
2019,06,30,16,10,24.90
2019,06,30,16,11,24.90
2019,06,30,16,12,25.00
2019,06,30,16,13,25.10
2019,06,30,16,14,25.10
2019,06,30,16,15,25.20
2019,06,30,16,16,25.20
2019,06,30,16,17,25.10
2019,06,30,16,18,25.20
2019,06,30,16,19,25.20
2019,06,30,16,20,25.20
2019,06,30,16,21,25.20
2019,06,30,16,22,25.30
2019,06,30,16,23,25.30
2019,06,30,16,24,25.20
2019,06,30,16,25,25.20
2019,06,30,16,26,25.10
2019,06,30,16,27,25.20
2019,06,30,16,28,25.20
2019,06,30,16,29,25.20
2019,06,30,16,30,25.10
2019,06,30,16,31,25.00
2019,06,30,16,32,24.90
2019,06,30,16,33,24.80
2019,06,30,16,34,24.70
2019,06,30,16,35,24.60
2019,06,30,16,36,24.60
2019,06,30,16,37,24.60
2019,06,30,16,38,24.50
2019,06,30,16,39,24.40
2019,06,30,16,40,24.30
2019,06,30,16,41,24.30
2019,06,30,16,42,24.20
2019,06,30,16,43,24.20
2019,06,30,16,44,24.10
2019,06,30,16,45,24.00
2019,06,30,16,46,23.90
2019,06,30,16,47,23.80
2019,06,30,16,48,23.70
2019,06,30,16,49,23.70
2019,06,30,16,50,23.60
2019,06,30,16,51,23.40
2019,06,30,16,52,23.40
2019,06,30,16,53,23.30
2019,06,30,16,54,23.30
2019,06,30,16,55,23.30
2019,06,30,16,56,23.30
2019,06,30,16,57,23.30
2019,06,30,16,58,23.30
2019,06,30,16,59,23.30
2019,06,30,17,00,23.30
2019,06,30,17,01,23.30
2019,06,30,17,02,23.30
2019,06,30,17,03,23.30
2019,06,30,17,04,23.30
2019,06,30,17,05,23.30
2019,06,30,17,06,23.20
2019,06,30,17,07,23.20
2019,06,30,17,08,23.30
2019,06,30,17,09,23.30
2019,06,30,17,10,23.30
2019,06,30,17,11,23.40
2019,06,30,17,12,23.50
2019,06,30,17,13,23.60
2019,06,30,17,14,23.70
2019,06,30,17,15,23.80
2019,06,30,17,16,23.80
2019,06,30,17,17,23.90
2019,06,30,17,18,23.90
2019,06,30,17,19,24.00